Weather History for KAPC - October, 2011

Change the Weather History Date:

Wednesday, October 5, 2011

  Actual Average Record
Temperature  
Mean Temperature 57 °F 61 °F  
Max Temperature 67 °F 77 °F 93 °F (2014)
Min Temperature 47 °F 45 °F 36 °F (2009)
Degree Days  
Heating Degree Days 8    
Month to date heating degree days 23  
Since 1 July heating degree days 104  
Cooling Degree Days 0    
Month to date cooling degree days 1  
Year to date cooling degree days 162  
Growing Degree Days 8 (Base 50)    
Moisture  
Dew Point 51 °F    
Average Humidity 71    
Maximum Humidity 93    
Minimum Humidity 48    
Precipitation  
Precipitation 0.50 in - 0.66 in (1924)
Month to date precipitation 0.94  
Year to date precipitation 16.82  
Since 1 July precipitation 0.97  
Sea Level Pressure  
Sea Level Pressure 29.70 in    
Wind  
Wind Speed 7 mph (WSW)    
Max Wind Speed 21 mph    
Max Gust Speed 25 mph    
Visibility 8 miles    
Events Rain    
T = Trace of Precipitation, MM = Missing Value Source: NWS Daily Summary

Daily Weather History Graph

Daily Weather History Graph

Search for Another Location

Airport or City:

Trip Planner

Search our weather history database for the weather conditions in past years. The results will help you decide how hot, cold, wet, or windy it might be!

Date:

Astronomy

Oct. 05, 2011 Rise Set
Actual Time 7:08 AM PDT 6:46 PM PDT
Civil Twilight 6:41 AM PDT 7:12 PM PDT
Nautical Twilight 6:11 AM PDT 7:43 PM PDT
Astronomical Twilight 5:40 AM PDT 8:13 PM PDT
Moon 3:25 PM PDT (10/5) 1:05 AM PDT (10/5)
Length of Visible Light 12h 30m
Length of Day
11h 37m
Waxing Gibbous, 67% of the Moon is Illuminated
Oct 5
Waxing Gibbous
Oct 11
Full
Oct 19
Last Quarter
Oct 26
New
Nov 2
First Quarter

Hourly Weather History & Observations

Time (PDT) Temp. Dew Point Humidity Pressure Visibility Wind Dir Wind Speed Gust Speed Precip Events Conditions
12:54 AM 57.0 °F 54.0 °F 89% 29.60 in 10.0 mi SE 8.1 mph - 0.02 in   Overcast
1:50 AM 55.4 °F 53.6 °F 94% 29.62 in 2.0 mi North 3.5 mph - 0.17 in Rain Heavy Rain
1:54 AM 55.9 °F 54.0 °F 93% 29.61 in 2.5 mi NW 8.1 mph - 0.19 in Rain Rain
2:00 AM 55.4 °F 53.6 °F 94% 29.64 in 1.5 mi NW 5.8 mph - 0.11 in Rain Heavy Rain
2:07 AM 57.2 °F 55.4 °F 94% 29.63 in 1.2 mi SSW 15.0 mph 18.4 mph 0.16 in Rain Heavy Rain
2:12 AM 57.2 °F 55.4 °F 94% 29.63 in 2.5 mi SW 16.1 mph - 0.20 in Rain Heavy Rain
2:19 AM 57.2 °F 55.4 °F 94% 29.63 in 2.5 mi SSW 18.4 mph - 0.25 in Rain Heavy Rain
2:24 AM 57.2 °F 53.6 °F 88% 29.63 in 3.0 mi SSW 17.3 mph - 0.27 in Rain Heavy Rain
2:54 AM 57.9 °F 55.0 °F 90% 29.60 in 10.0 mi SW 13.8 mph - 0.29 in   Overcast
3:09 AM 57.2 °F 53.6 °F 88% 29.63 in 10.0 mi West 11.5 mph - N/A   Overcast
3:54 AM 55.0 °F 51.1 °F 86% 29.60 in 10.0 mi West 12.7 mph - N/A   Scattered Clouds
4:54 AM 54.0 °F 50.0 °F 86% 29.63 in 10.0 mi West 11.5 mph - N/A   Clear
6:54 AM 52.0 °F 48.9 °F 89% 29.68 in 10.0 mi WSW 5.8 mph - N/A   Mostly Cloudy
7:54 AM 54.0 °F 51.1 °F 90% 29.70 in 10.0 mi WSW 3.5 mph - N/A   Clear
8:54 AM 55.9 °F 51.1 °F 84% 29.73 in 10.0 mi West 5.8 mph - N/A   Scattered Clouds
9:54 AM 57.9 °F 51.1 °F 78% 29.75 in 10.0 mi West 6.9 mph - N/A   Scattered Clouds
10:54 AM 63.0 °F 51.1 °F 65% 29.75 in 10.0 mi SW 6.9 mph - N/A   Mostly Cloudy
11:54 AM 66.0 °F 46.9 °F 50% 29.75 in 10.0 mi West 13.8 mph 19.6 mph N/A   Mostly Cloudy
1:54 PM 57.0 °F 50.0 °F 77% 29.77 in 10.0 mi West 10.4 mph - 0.01 in Rain Light Rain
2:54 PM 61.0 °F 50.0 °F 67% 29.75 in 10.0 mi SSW 5.8 mph - 0.00 in   Mostly Cloudy
3:54 PM 64.0 °F 46.9 °F 54% 29.74 in 10.0 mi WSW 15.0 mph 23.0 mph N/A   Mostly Cloudy
4:54 PM 59.0 °F 48.9 °F 69% 29.75 in 10.0 mi NW 11.5 mph 20.7 mph 0.00 in Rain Light Rain
5:54 PM 61.0 °F 48.9 °F 64% 29.74 in 10.0 mi West 9.2 mph - 0.00 in   Mostly Cloudy
6:54 PM 57.9 °F 48.9 °F 72% 29.76 in 10.0 mi West 6.9 mph - N/A   Scattered Clouds
7:54 PM 55.0 °F 48.0 °F 77% 29.78 in 10.0 mi WSW 8.1 mph - N/A   Clear
8:54 PM 52.0 °F 46.9 °F 83% 29.81 in 10.0 mi Calm Calm - N/A   Clear
9:54 PM 53.1 °F 48.0 °F 83% 29.82 in 10.0 mi Calm Calm - N/A   Clear
10:54 PM 50.0 °F 46.0 °F 86% 29.83 in 10.0 mi Calm Calm - N/A   Clear
11:54 PM 48.9 °F 46.0 °F 90% 29.84 in 10.0 mi WSW 4.6 mph - N/A   Clear